User: anonymous   Login
Location: Muenchen
(48.1800°N, 11.5800°E)
Time: 07:22:38
(UTC+01:00)
Language:

Iridium 73 - Orbit

View from above orbital plane
View from above orbital plane
View from above satellite
View from above satellite

Ground track
Ground track

The orbit data is extracted from the following two-line orbital elements,

1 25344U 98032C   15029.50793672  .00000684  00000-0  17664-3 0  9991
2 25344 086.4419 210.3532 0002825 102.5355 280.9706 14.48578776881631
Epoch (UTC): 29 January 2015 12:11:25
Eccentricity: 0.0002825
inclination: 86.4419°
perigee height: 728 km
apogee height: 732 km
right ascension of ascending node: 210.3532°
argument of perigee: 102.5355°
revolutions per day: 14.48578776
mean anomaly at epoch: 280.9706°
orbit number at epoch: 88163

The dashed part of the orbit path shows where the satellite is in the earth's shadow,  

DLR